Date String (YYYY-MM-DD hh:mm:ss) UTC,Instrument flags,Ambient pressure (hPa),Sample flow (lpm),Bypass flow (lpm),Sample temperature (°C),Ambient temperature (°C),ASC tube jacket temperature (°C),LED temperature (°C),Box temperature (°C),Sample RH (%),Span deviation,Mass concentration (μg/m³),Mass concentration (μg/m³),Mass concentration (μg/m³)
DateTimeUTC,F1_M11,P_M11,Q1_M11,Q2_M11,T1_M11,T2_M11,T3_M11,T4_M11,T5_M11,U1_M11,ZSPAN_M11,X0_M11,X2_M11,X1_M11
2022-07-24 19:00:00,,0831.0,5.01,0.00,30.3,27.9,00.0,38.8,31.7,35.4,-000.6,0013.63,0007.70,0006.98
2022-07-24 19:01:00,,0831.1,4.99,0.00,30.6,28.1,00.0,38.8,31.9,35.0,-000.5,0013.69,0007.64,0006.93
2022-07-24 19:02:00,,0831.1,5.00,0.00,30.8,28.3,00.0,38.8,32.0,34.6,-000.5,0014.11,0007.69,0006.98
2022-07-24 19:03:00,,0831.0,5.00,0.00,30.9,28.4,00.0,38.9,32.0,33.7,-000.6,0014.17,0007.78,0007.07
2022-07-24 19:04:00,,0831.0,5.01,0.00,31.0,28.6,00.0,38.9,32.1,33.4,-000.8,0014.40,0007.96,0007.24
2022-07-24 19:05:00,,0831.0,5.00,0.00,31.0,28.7,00.0,39.0,32.1,33.2,-000.3,0014.68,0008.17,0007.43
2022-07-24 19:06:00,,0831.0,5.00,0.00,31.1,28.4,00.0,39.0,32.1,33.0,-000.5,0014.96,0008.35,0007.61
2022-07-24 19:07:00,,0831.0,4.99,0.00,31.0,27.7,00.0,39.0,32.0,33.1,-000.3,0015.11,0008.52,0007.75
2022-07-24 19:08:00,,0831.0,5.01,0.00,31.0,27.3,00.0,39.0,31.9,33.4,-000.2,0015.12,0008.65,0007.88
2022-07-24 19:09:00,,0830.9,5.00,0.00,30.9,27.3,00.0,39.0,31.8,33.5,-000.2,0014.42,0008.76,0008.00
2022-07-24 19:10:00,,0830.9,4.99,0.00,30.8,27.4,00.0,39.0,31.7,33.8,-000.1,0013.98,0008.90,0008.12
2022-07-24 19:11:00,,0830.9,4.99,0.00,30.7,27.6,00.0,39.1,31.8,33.8,-000.1,0013.69,0009.08,0008.28
2022-07-24 19:12:00,,0830.9,5.01,0.00,30.7,27.8,00.0,39.1,31.7,33.9,-000.3,0013.72,0009.24,0008.46
2022-07-24 19:13:00,,0830.9,5.00,0.00,30.6,28.0,00.0,39.1,31.8,34.0,-000.2,0013.74,0009.39,0008.61
2022-07-24 19:14:00,,0830.9,5.00,0.00,30.6,28.1,00.0,39.1,31.9,33.9,-000.1,0014.33,0009.43,0008.65
2022-07-24 19:15:00,,0830.9,5.01,0.00,30.6,28.3,00.0,39.1,31.9,33.5,-000.4,0014.79,0009.30,0008.55
2022-07-24 19:16:00,,0830.9,4.98,0.00,30.6,28.5,00.0,39.1,32.0,33.0,-000.7,0014.98,0009.18,0008.41
2022-07-24 19:17:00,,0830.9,5.01,0.00,30.6,28.6,00.0,39.1,32.0,33.0,-000.6,0015.46,0009.05,0008.27
2022-07-24 19:18:00,,0830.8,4.99,0.00,30.6,28.7,00.0,39.1,32.0,33.0,-000.8,0015.34,0008.90,0008.13
2022-07-24 19:19:00,,0830.7,5.00,0.00,30.6,28.3,00.0,39.1,32.0,33.2,-000.8,0015.29,0008.76,0008.02
2022-07-24 19:20:00,,0830.8,4.99,0.00,30.6,27.6,00.0,39.0,31.9,33.3,-000.9,0014.95,0008.63,0007.91
2022-07-24 19:21:00,,0830.8,5.01,0.00,30.5,27.3,00.0,39.0,31.8,33.2,-001.2,0014.88,0008.50,0007.78
2022-07-24 19:22:00,,0830.8,4.99,0.00,30.4,27.3,00.0,39.0,31.7,33.3,-001.2,0014.80,0008.34,0007.63
2022-07-24 19:23:00,,0830.8,5.01,0.00,30.4,27.5,00.0,39.0,31.7,33.6,-000.9,0014.69,0008.21,0007.48
2022-07-24 19:24:00,,0830.7,4.99,0.00,30.3,27.6,00.0,38.9,31.7,33.4,-000.9,0014.49,0008.14,0007.37
2022-07-24 19:25:00,,0830.8,5.01,0.00,30.3,27.8,00.0,38.9,31.7,34.0,-001.3,0013.93,0008.07,0007.28
2022-07-24 19:26:00,,0830.8,5.00,0.00,30.3,28.0,00.0,38.9,31.7,34.7,-001.0,0013.27,0008.03,0007.21
2022-07-24 19:27:00,,0830.8,5.01,0.00,30.3,28.2,00.0,38.9,31.8,34.7,-000.9,0012.78,0007.96,0007.18
2022-07-24 19:28:00,,0830.8,4.99,0.00,30.3,28.3,00.0,38.9,31.9,34.0,-001.0,0012.11,0007.92,0007.14
2022-07-24 19:29:00,,0830.7,5.00,0.00,30.3,28.5,00.0,38.9,31.9,34.0,-001.1,0012.28,0007.96,0007.15
2022-07-24 19:30:00,,0830.7,5.00,0.00,30.3,28.6,00.0,38.9,32.0,34.0,-001.2,0012.33,0007.99,0007.15
2022-07-24 19:31:00,,0830.8,5.01,0.00,30.3,28.6,00.0,38.9,32.0,34.2,-001.0,0012.40,0008.02,0007.16
2022-07-24 19:32:00,,0830.9,4.99,0.00,30.3,28.1,00.0,38.9,31.9,34.3,-000.7,0012.21,0008.04,0007.16
2022-07-24 19:33:00,,0830.9,5.00,0.00,30.3,27.5,00.0,38.8,31.8,34.0,-000.5,0012.15,0008.06,0007.20
2022-07-24 19:34:00,,0830.9,4.99,0.00,30.3,27.2,00.0,38.8,31.7,33.8,-000.4,0012.28,0008.14,0007.27
2022-07-24 19:35:00,,0831.0,5.00,0.00,30.1,27.2,00.0,38.8,31.6,33.9,-000.3,0012.35,0008.16,0007.33
2022-07-24 19:36:00,,0831.0,5.00,0.00,30.1,27.4,00.0,38.8,31.5,34.1,-000.4,0012.49,0008.26,0007.44
2022-07-24 19:37:00,,0831.0,5.00,0.00,30.0,27.6,00.0,38.8,31.6,34.4,-000.8,0012.55,0008.40,0007.61
2022-07-24 19:38:00,,0831.0,5.00,0.00,30.0,27.8,00.0,38.8,31.6,34.5,-000.9,0012.74,0008.60,0007.78
2022-07-24 19:39:00,,0831.0,5.00,0.00,30.0,28.0,00.0,38.8,31.6,34.5,-000.6,0012.91,0008.78,0007.96
2022-07-24 19:40:00,,0831.0,5.00,0.00,30.0,28.1,00.0,38.8,31.7,34.5,-000.6,0012.96,0008.99,0008.14
2022-07-24 19:41:00,,0831.0,5.01,0.00,30.0,28.3,00.0,38.8,31.7,35.0,-000.7,0013.00,0009.11,0008.29
2022-07-24 19:42:00,,0831.0,5.00,0.00,30.2,28.4,00.0,38.8,31.9,35.2,-000.9,0013.08,0009.23,0008.44
2022-07-24 19:43:00,,0831.2,4.98,0.00,30.5,28.6,00.0,38.8,32.1,34.4,-000.8,0013.19,0009.37,0008.59
2022-07-24 19:44:00,,0831.2,5.00,0.00,30.7,28.5,00.0,38.8,32.1,34.1,-001.2,0013.47,0009.48,0008.70
2022-07-24 19:45:00,,0831.2,5.01,0.00,30.8,27.8,00.0,38.7,32.0,34.3,-001.4,0014.34,0009.60,0008.84
2022-07-24 19:46:00,,0831.2,4.99,0.00,30.8,27.3,00.0,38.7,31.9,34.3,-001.4,0015.00,0009.82,0009.01
2022-07-24 19:47:00,,0831.3,5.01,0.00,30.8,27.2,00.0,38.8,31.7,34.0,-001.3,0014.99,0009.84,0009.03
2022-07-24 19:48:00,,0831.4,4.99,0.00,30.7,27.2,00.0,38.8,31.6,33.7,-001.0,0015.23,0009.81,0008.99
2022-07-24 19:49:00,,0831.5,5.01,0.00,30.6,27.4,00.0,38.8,31.6,33.9,-000.8,0015.65,0009.82,0008.97
2022-07-24 19:50:00,,0831.5,5.00,0.00,30.6,27.5,00.0,38.9,31.6,34.0,-001.0,0016.27,0009.87,0009.02
2022-07-24 19:51:00,,0831.5,4.99,0.00,30.5,27.7,00.0,38.9,31.7,34.1,-000.9,0016.40,0009.87,0009.03
2022-07-24 19:52:00,,0831.6,5.00,0.00,30.5,27.9,00.0,38.9,31.7,34.1,-001.2,0016.63,0009.95,0009.07
2022-07-24 19:53:00,,0831.6,5.00,0.00,30.5,28.1,00.0,38.9,31.8,34.5,-001.4,0016.69,0009.99,0009.10
2022-07-24 19:54:00,,0831.7,5.01,0.00,30.5,28.3,00.0,38.9,31.8,34.1,-001.6,0016.76,0010.04,0009.15
2022-07-24 19:55:00,,0831.7,5.01,0.00,30.5,28.4,00.0,38.9,31.8,34.0,-001.7,0016.72,0010.09,0009.18
2022-07-24 19:56:00,,0831.7,5.00,0.00,30.5,28.5,00.0,39.0,31.9,34.0,-001.6,0016.43,0010.10,0009.21
2022-07-24 19:57:00,,0831.7,5.00,0.00,30.5,28.6,00.0,39.0,31.9,34.1,-001.7,0015.21,0010.04,0009.18
2022-07-24 19:58:00,,0831.7,5.00,0.00,30.5,28.7,00.0,39.0,32.0,34.4,-001.8,0015.04,0009.98,0009.16
2022-07-24 19:59:00,,0831.7,5.00,0.00,30.5,28.2,00.0,38.9,32.0,35.2,-001.7,0015.22,0010.11,0009.27
